iso_date,Year,Hour,Min,DOY,POS_DOY,Lat,Lon,BP,Ts,Ta,has_bp,has_ts,has_ta,BuoyID,Buoy_Type,Buoy_Owner,Logistics,Hemisphere
2021-11-23T16:00:02Z,2021,16,0,327.6667,327.6667,61.521,-66.705,-999.0,-0.07,-999.0,no,yes,no,300234068345610,SVPGHI,AOML,UNKNOWN,North
2021-11-23T16:59:57Z,2021,17,0,327.7083,327.7083,61.534,-66.7,-999.0,-0.08,-999.0,no,yes,no,300234068345610,SVPGHI,AOML,UNKNOWN,North
2021-11-23T18:00:00Z,2021,18,0,327.75,327.75,61.542,-66.677,-999.0,-0.09,-999.0,no,yes,no,300234068345610,SVPGHI,AOML,UNKNOWN,North
2021-11-23T19:03:56Z,2021,19,4,327.7944,327.7944,-90.0,-180.0,-999.0,-0.09,-999.0,no,yes,no,300234068345610,SVPGHI,AOML,UNKNOWN,North
2021-11-23T19:59:57Z,2021,20,0,327.8333,327.8333,61.545,-66.601,-999.0,-0.09,-999.0,no,yes,no,300234068345610,SVPGHI,AOML,UNKNOWN,North
2021-11-23T21:00:00Z,2021,21,0,327.875,327.875,61.547,-66.568,-999.0,-0.09,-999.0,no,yes,no,300234068345610,SVPGHI,AOML,UNKNOWN,North
2021-11-23T22:01:03Z,2021,22,1,327.9174,327.9174,61.54,-66.548,-999.0,-0.09,-999.0,no,yes,no,300234068345610,SVPGHI,AOML,UNKNOWN,North
2021-11-23T22:59:57Z,2021,23,0,327.9583,327.9583,61.533,-66.553,-999.0,-0.1,-999.0,no,yes,no,300234068345610,SVPGHI,AOML,UNKNOWN,North
2021-11-24T00:04:01Z,2021,0,4,328.0028,328.0028,61.528,-66.579,-999.0,-0.1,-999.0,no,yes,no,300234068345610,SVPGHI,AOML,UNKNOWN,North
2021-11-24T01:00:02Z,2021,1,0,328.0417,328.0417,61.522,-66.611,-999.0,-0.09,-999.0,no,yes,no,300234068345610,SVPGHI,AOML,UNKNOWN,North
2021-11-24T01:59:57Z,2021,2,0,328.0833,328.0833,61.518,-66.645,-999.0,-0.1,-999.0,no,yes,no,300234068345610,SVPGHI,AOML,UNKNOWN,North
2021-11-24T03:00:00Z,2021,3,0,328.125,328.125,61.517,-66.674,-999.0,-0.1,-999.0,no,yes,no,300234068345610,SVPGHI,AOML,UNKNOWN,North
2021-11-24T04:03:56Z,2021,4,4,328.1694,328.1694,61.515,-66.689,-999.0,-0.11,-999.0,no,yes,no,300234068345610,SVPGHI,AOML,UNKNOWN,North
2021-11-24T04:59:57Z,2021,5,0,328.2083,328.2083,61.515,-66.684,-999.0,-0.11,-999.0,no,yes,no,300234068345610,SVPGHI,AOML,UNKNOWN,North
2021-11-24T06:00:00Z,2021,6,0,328.25,328.25,61.516,-66.667,-999.0,-0.11,-999.0,no,yes,no,300234068345610,SVPGHI,AOML,UNKNOWN,North
2021-11-24T07:00:02Z,2021,7,0,328.2917,328.2917,61.516,-66.635,-999.0,-0.12,-999.0,no,yes,no,300234068345610,SVPGHI,AOML,UNKNOWN,North
2021-11-24T07:59:57Z,2021,8,0,328.3333,328.3333,61.515,-66.599,-999.0,-0.11,-999.0,no,yes,no,300234068345610,SVPGHI,AOML,UNKNOWN,North
2021-11-24T09:00:00Z,2021,9,0,328.375,328.375,61.511,-66.568,-999.0,-0.13,-999.0,no,yes,no,300234068345610,SVPGHI,AOML,UNKNOWN,North
2021-11-24T10:02:03Z,2021,10,2,328.4181,328.4181,61.512,-66.548,-999.0,-0.13,-999.0,no,yes,no,300234068345610,SVPGHI,AOML,UNKNOWN,North
2021-11-24T12:00:00Z,2021,12,0,328.5,328.5,61.499,-66.565,-999.0,-0.14,-999.0,no,yes,no,300234068345610,SVPGHI,AOML,UNKNOWN,North
2021-11-24T13:03:56Z,2021,13,4,328.5444,328.5444,61.493,-66.598,-999.0,-0.13,-999.0,no,yes,no,300234068345610,SVPGHI,AOML,UNKNOWN,North
2021-11-24T13:59:57Z,2021,14,0,328.5833,328.5833,61.489,-66.633,-999.0,-0.14,-999.0,no,yes,no,300234068345610,SVPGHI,AOML,UNKNOWN,North
2021-11-24T15:00:00Z,2021,15,0,328.625,328.625,61.485,-66.668,-999.0,-0.13,-999.0,no,yes,no,300234068345610,SVPGHI,AOML,UNKNOWN,North
2021-11-24T16:00:02Z,2021,16,0,328.6667,328.6667,61.485,-66.696,-999.0,-0.13,-999.0,no,yes,no,300234068345610,SVPGHI,AOML,UNKNOWN,North
2021-11-24T16:59:57Z,2021,17,0,328.7083,328.7083,61.487,-66.708,-999.0,-0.14,-999.0,no,yes,no,300234068345610,SVPGHI,AOML,UNKNOWN,North
2021-11-24T19:00:02Z,2021,19,0,328.7917,328.7917,61.495,-66.691,-999.0,-0.13,-999.0,no,yes,no,300234068345610,SVPGHI,AOML,UNKNOWN,North
2021-11-24T19:59:57Z,2021,20,0,328.8333,328.8333,61.502,-66.661,-999.0,-0.12,-999.0,no,yes,no,300234068345610,SVPGHI,AOML,UNKNOWN,North
2021-11-24T21:00:00Z,2021,21,0,328.875,328.875,61.508,-66.63,-999.0,-0.11,-999.0,no,yes,no,300234068345610,SVPGHI,AOML,UNKNOWN,North
2021-11-24T22:00:02Z,2021,22,0,328.9167,328.9167,61.508,-66.614,-999.0,-0.08,-999.0,no,yes,no,300234068345610,SVPGHI,AOML,UNKNOWN,North
2021-11-24T22:59:57Z,2021,23,0,328.9583,328.9583,61.51,-66.603,-999.0,-0.08,-999.0,no,yes,no,300234068345610,SVPGHI,AOML,UNKNOWN,North
2021-11-25T00:04:01Z,2021,0,4,329.0028,329.0028,61.51,-66.617,-999.0,-0.07,-999.0,no,yes,no,300234068345610,SVPGHI,AOML,UNKNOWN,North
2021-11-25T01:00:02Z,2021,1,0,329.0417,329.0417,61.508,-66.635,-999.0,-0.06,-999.0,no,yes,no,300234068345610,SVPGHI,AOML,UNKNOWN,North
2021-11-25T01:59:57Z,2021,2,0,329.0833,329.0833,61.505,-66.663,-999.0,-0.06,-999.0,no,yes,no,300234068345610,SVPGHI,AOML,UNKNOWN,North
2021-11-25T03:00:00Z,2021,3,0,329.125,329.125,61.501,-66.695,-999.0,-0.04,-999.0,no,yes,no,300234068345610,SVPGHI,AOML,UNKNOWN,North
2021-11-25T04:00:02Z,2021,4,0,329.1667,329.1667,61.499,-66.722,-999.0,-0.04,-999.0,no,yes,no,300234068345610,SVPGHI,AOML,UNKNOWN,North
2021-11-25T04:59:57Z,2021,5,0,329.2083,329.2083,61.499,-66.736,-999.0,-0.04,-999.0,no,yes,no,300234068345610,SVPGHI,AOML,UNKNOWN,North
2021-11-25T06:00:00Z,2021,6,0,329.25,329.25,61.499,-66.736,-999.0,-0.04,-999.0,no,yes,no,300234068345610,SVPGHI,AOML,UNKNOWN,North
2021-11-25T07:00:02Z,2021,7,0,329.2917,329.2917,61.502,-66.725,-999.0,-0.03,-999.0,no,yes,no,300234068345610,SVPGHI,AOML,UNKNOWN,North
2021-11-25T07:59:57Z,2021,8,0,329.3333,329.3333,61.503,-66.706,-999.0,-0.03,-999.0,no,yes,no,300234068345610,SVPGHI,AOML,UNKNOWN,North
2021-11-25T09:00:00Z,2021,9,0,329.375,329.375,61.506,-66.683,-999.0,-0.04,-999.0,no,yes,no,300234068345610,SVPGHI,AOML,UNKNOWN,North
2021-11-25T10:02:03Z,2021,10,2,329.4181,329.4181,61.507,-66.669,-999.0,-0.03,-999.0,no,yes,no,300234068345610,SVPGHI,AOML,UNKNOWN,North
2021-11-25T10:59:57Z,2021,11,0,329.4583,329.4583,61.504,-66.672,-999.0,-0.03,-999.0,no,yes,no,300234068345610,SVPGHI,AOML,UNKNOWN,North
2021-11-25T13:00:02Z,2021,13,0,329.5417,329.5417,61.507,-66.716,-999.0,-0.04,-999.0,no,yes,no,300234068345610,SVPGHI,AOML,UNKNOWN,North
2021-11-25T13:59:57Z,2021,14,0,329.5833,329.5833,61.509,-66.75,-999.0,-0.04,-999.0,no,yes,no,300234068345610,SVPGHI,AOML,UNKNOWN,North
2021-11-25T15:00:00Z,2021,15,0,329.625,329.625,61.513,-66.784,-999.0,-0.05,-999.0,no,yes,no,300234068345610,SVPGHI,AOML,UNKNOWN,North
2021-11-25T18:00:00Z,2021,18,0,329.75,329.75,61.521,-66.829,-999.0,-0.06,-999.0,no,yes,no,300234068345610,SVPGHI,AOML,UNKNOWN,North
2021-11-25T19:00:02Z,2021,19,0,329.7917,329.7917,61.523,-66.82,-999.0,-0.09,-999.0,no,yes,no,300234068345610,SVPGHI,AOML,UNKNOWN,North
2021-11-25T19:59:57Z,2021,20,0,329.8333,329.8333,61.525,-66.807,-999.0,-0.09,-999.0,no,yes,no,300234068345610,SVPGHI,AOML,UNKNOWN,North
2021-11-25T21:00:00Z,2021,21,0,329.875,329.875,61.525,-66.792,-999.0,-0.09,-999.0,no,yes,no,300234068345610,SVPGHI,AOML,UNKNOWN,North
2021-11-25T22:00:02Z,2021,22,0,329.9167,329.9167,61.522,-66.779,-999.0,-0.11,-999.0,no,yes,no,300234068345610,SVPGHI,AOML,UNKNOWN,North
2021-11-25T22:59:57Z,2021,23,0,329.9583,329.9583,61.521,-66.78,-999.0,-0.15,-999.0,no,yes,no,300234068345610,SVPGHI,AOML,UNKNOWN,North
2021-11-26T00:00:00Z,2021,0,0,330.0,330.0,61.521,-66.795,-999.0,-0.14,-999.0,no,yes,no,300234068345610,SVPGHI,AOML,UNKNOWN,North
2021-11-26T01:00:02Z,2021,1,0,330.0417,330.0417,61.523,-66.826,-999.0,-0.17,-999.0,no,yes,no,300234068345610,SVPGHI,AOML,UNKNOWN,North
2021-11-26T01:59:57Z,2021,2,0,330.0833,330.0833,61.528,-66.865,-999.0,-0.18,-999.0,no,yes,no,300234068345610,SVPGHI,AOML,UNKNOWN,North
2021-11-26T03:00:00Z,2021,3,0,330.125,330.125,61.535,-66.9,-999.0,-0.19,-999.0,no,yes,no,300234068345610,SVPGHI,AOML,UNKNOWN,North
2021-11-26T04:00:02Z,2021,4,0,330.1667,330.1667,61.542,-66.931,-999.0,-0.22,-999.0,no,yes,no,300234068345610,SVPGHI,AOML,UNKNOWN,North
2021-11-26T04:59:57Z,2021,5,0,330.2083,330.2083,61.55,-66.95,-999.0,-0.19,-999.0,no,yes,no,300234068345610,SVPGHI,AOML,UNKNOWN,North
2021-11-26T06:00:00Z,2021,6,0,330.25,330.25,61.554,-66.954,-999.0,-0.13,-999.0,no,yes,no,300234068345610,SVPGHI,AOML,UNKNOWN,North
2021-11-26T07:00:02Z,2021,7,0,330.2917,330.2917,61.562,-66.948,-999.0,-0.13,-999.0,no,yes,no,300234068345610,SVPGHI,AOML,UNKNOWN,North
2021-11-26T07:59:57Z,2021,8,0,330.3333,330.3333,61.562,-66.932,-999.0,-0.11,-999.0,no,yes,no,300234068345610,SVPGHI,AOML,UNKNOWN,North
2021-11-26T09:00:00Z,2021,9,0,330.375,330.375,61.561,-66.917,-999.0,-0.14,-999.0,no,yes,no,300234068345610,SVPGHI,AOML,UNKNOWN,North
2021-11-26T10:00:02Z,2021,10,0,330.4167,330.4167,61.559,-66.907,-999.0,-0.15,-999.0,no,yes,no,300234068345610,SVPGHI,AOML,UNKNOWN,North
2021-11-26T12:00:00Z,2021,12,0,330.5,330.5,61.562,-66.917,-999.0,-0.13,-999.0,no,yes,no,300234068345610,SVPGHI,AOML,UNKNOWN,North
2021-11-26T13:00:02Z,2021,13,0,330.5417,330.5417,61.565,-66.94,-999.0,-0.12,-999.0,no,yes,no,300234068345610,SVPGHI,AOML,UNKNOWN,North
2021-11-26T13:59:57Z,2021,14,0,330.5833,330.5833,61.569,-66.971,-999.0,-0.13,-999.0,no,yes,no,300234068345610,SVPGHI,AOML,UNKNOWN,North
2021-11-26T15:00:00Z,2021,15,0,330.625,330.625,61.577,-67.006,-999.0,-0.13,-999.0,no,yes,no,300234068345610,SVPGHI,AOML,UNKNOWN,North
2021-11-26T16:01:03Z,2021,16,1,330.6674,330.6674,61.585,-67.039,-999.0,-0.13,-999.0,no,yes,no,300234068345610,SVPGHI,AOML,UNKNOWN,North
2021-11-26T16:59:57Z,2021,17,0,330.7083,330.7083,61.592,-67.062,-999.0,-0.13,-999.0,no,yes,no,300234068345610,SVPGHI,AOML,UNKNOWN,North
2021-11-26T18:00:00Z,2021,18,0,330.75,330.75,61.596,-67.079,-999.0,-0.13,-999.0,no,yes,no,300234068345610,SVPGHI,AOML,UNKNOWN,North
2021-11-26T19:00:02Z,2021,19,0,330.7917,330.7917,61.598,-67.086,-999.0,-0.14,-999.0,no,yes,no,300234068345610,SVPGHI,AOML,UNKNOWN,North
2021-11-26T19:59:57Z,2021,20,0,330.8333,330.8333,61.599,-67.086,-999.0,-0.14,-999.0,no,yes,no,300234068345610,SVPGHI,AOML,UNKNOWN,North
2021-11-26T21:01:00Z,2021,21,1,330.8757,330.8757,61.599,-67.081,-999.0,-0.15,-999.0,no,yes,no,300234068345610,SVPGHI,AOML,UNKNOWN,North
2021-11-26T22:00:02Z,2021,22,0,330.9167,330.9167,61.6,-67.069,-999.0,-0.15,-999.0,no,yes,no,300234068345610,SVPGHI,AOML,UNKNOWN,North
2021-11-26T22:59:57Z,2021,23,0,330.9583,330.9583,61.599,-67.061,-999.0,-0.15,-999.0,no,yes,no,300234068345610,SVPGHI,AOML,UNKNOWN,North
2021-11-27T00:00:00Z,2021,0,0,331.0,331.0,61.598,-67.063,-999.0,-0.15,-999.0,no,yes,no,300234068345610,SVPGHI,AOML,UNKNOWN,North
2021-11-27T01:00:02Z,2021,1,0,331.0417,331.0417,61.598,-67.077,-999.0,-0.16,-999.0,no,yes,no,300234068345610,SVPGHI,AOML,UNKNOWN,North
2021-11-27T01:59:57Z,2021,2,0,331.0833,331.0833,61.599,-67.101,-999.0,-0.18,-999.0,no,yes,no,300234068345610,SVPGHI,AOML,UNKNOWN,North
2021-11-27T03:02:00Z,2021,3,2,331.1264,331.1264,61.603,-67.128,-999.0,-0.19,-999.0,no,yes,no,300234068345610,SVPGHI,AOML,UNKNOWN,North
2021-11-27T04:00:02Z,2021,4,0,331.1667,331.1667,61.609,-67.157,-999.0,-0.2,-999.0,no,yes,no,300234068345610,SVPGHI,AOML,UNKNOWN,North
2021-11-27T05:00:57Z,2021,5,1,331.209,331.209,61.616,-67.179,-999.0,-0.23,-999.0,no,yes,no,300234068345610,SVPGHI,AOML,UNKNOWN,North
2021-11-27T06:00:00Z,2021,6,0,331.25,331.25,61.621,-67.194,-999.0,-0.29,-999.0,no,yes,no,300234068345610,SVPGHI,AOML,UNKNOWN,North
2021-11-27T07:00:02Z,2021,7,0,331.2917,331.2917,61.624,-67.202,-999.0,-0.28,-999.0,no,yes,no,300234068345610,SVPGHI,AOML,UNKNOWN,North
2021-11-27T07:59:57Z,2021,8,0,331.3333,331.3333,61.627,-67.202,-999.0,-0.28,-999.0,no,yes,no,300234068345610,SVPGHI,AOML,UNKNOWN,North
2021-11-27T09:00:00Z,2021,9,0,331.375,331.375,61.628,-67.197,-999.0,-0.28,-999.0,no,yes,no,300234068345610,SVPGHI,AOML,UNKNOWN,North
2021-11-27T10:01:03Z,2021,10,1,331.4174,331.4174,61.63,-67.185,-999.0,-0.27,-999.0,no,yes,no,300234068345610,SVPGHI,AOML,UNKNOWN,North
2021-11-27T12:00:00Z,2021,12,0,331.5,331.5,61.632,-67.172,-999.0,-0.28,-999.0,no,yes,no,300234068345610,SVPGHI,AOML,UNKNOWN,North
2021-11-27T13:00:02Z,2021,13,0,331.5417,331.5417,61.634,-67.18,-999.0,-0.29,-999.0,no,yes,no,300234068345610,SVPGHI,AOML,UNKNOWN,North
2021-11-27T13:59:57Z,2021,14,0,331.5833,331.5833,61.631,-67.199,-999.0,-0.27,-999.0,no,yes,no,300234068345610,SVPGHI,AOML,UNKNOWN,North
2021-11-27T15:00:00Z,2021,15,0,331.625,331.625,61.631,-67.229,-999.0,-0.26,-999.0,no,yes,no,300234068345610,SVPGHI,AOML,UNKNOWN,North
2021-11-27T16:00:02Z,2021,16,0,331.6667,331.6667,61.631,-67.265,-999.0,-0.27,-999.0,no,yes,no,300234068345610,SVPGHI,AOML,UNKNOWN,North
2021-11-27T16:59:57Z,2021,17,0,331.7083,331.7083,61.631,-67.305,-999.0,-0.29,-999.0,no,yes,no,300234068345610,SVPGHI,AOML,UNKNOWN,North
2021-11-27T18:00:00Z,2021,18,0,331.75,331.75,61.636,-67.339,-999.0,-0.29,-999.0,no,yes,no,300234068345610,SVPGHI,AOML,UNKNOWN,North
2021-11-27T19:03:04Z,2021,19,3,331.7938,331.7938,61.642,-67.361,-999.0,-0.29,-999.0,no,yes,no,300234068345610,SVPGHI,AOML,UNKNOWN,North
2021-11-27T19:59:57Z,2021,20,0,331.8333,331.8333,61.646,-67.37,-999.0,-0.28,-999.0,no,yes,no,300234068345610,SVPGHI,AOML,UNKNOWN,North
2021-11-27T21:00:00Z,2021,21,0,331.875,331.875,61.651,-67.366,-999.0,-0.27,-999.0,no,yes,no,300234068345610,SVPGHI,AOML,UNKNOWN,North
2021-11-27T22:00:02Z,2021,22,0,331.9167,331.9167,61.652,-67.344,-999.0,-0.27,-999.0,no,yes,no,300234068345610,SVPGHI,AOML,UNKNOWN,North
2021-11-27T23:03:59Z,2021,23,4,331.9611,331.9611,61.65,-67.317,-999.0,-0.28,-999.0,no,yes,no,300234068345610,SVPGHI,AOML,UNKNOWN,North
2021-11-28T00:00:00Z,2021,0,0,332.0,332.0,61.646,-67.294,-999.0,-0.29,-999.0,no,yes,no,300234068345610,SVPGHI,AOML,UNKNOWN,North
2021-11-28T01:00:02Z,2021,1,0,332.0417,332.0417,61.64,-67.284,-999.0,-0.29,-999.0,no,yes,no,300234068345610,SVPGHI,AOML,UNKNOWN,North
2021-11-28T02:02:58Z,2021,2,3,332.0854,332.0854,61.636,-67.291,-999.0,-0.3,-999.0,no,yes,no,300234068345610,SVPGHI,AOML,UNKNOWN,North
2021-11-28T03:00:00Z,2021,3,0,332.125,332.125,61.634,-67.314,-999.0,-0.31,-999.0,no,yes,no,300234068345610,SVPGHI,AOML,UNKNOWN,North
2021-11-28T04:00:02Z,2021,4,0,332.1667,332.1667,61.64,-67.341,-999.0,-0.32,-999.0,no,yes,no,300234068345610,SVPGHI,AOML,UNKNOWN,North
2021-11-28T04:59:57Z,2021,5,0,332.2083,332.2083,61.651,-67.371,-999.0,-0.34,-999.0,no,yes,no,300234068345610,SVPGHI,AOML,UNKNOWN,North
2021-11-28T06:00:00Z,2021,6,0,332.25,332.25,61.662,-67.4,-999.0,-0.35,-999.0,no,yes,no,300234068345610,SVPGHI,AOML,UNKNOWN,North
2021-11-28T07:59:57Z,2021,8,0,332.3333,332.3333,61.687,-67.437,-999.0,-0.35,-999.0,no,yes,no,300234068345610,SVPGHI,AOML,UNKNOWN,North
2021-11-28T09:00:00Z,2021,9,0,332.375,332.375,61.694,-67.439,-999.0,-0.35,-999.0,no,yes,no,300234068345610,SVPGHI,AOML,UNKNOWN,North
2021-11-28T10:00:02Z,2021,10,0,332.4167,332.4167,61.699,-67.441,-999.0,-0.35,-999.0,no,yes,no,300234068345610,SVPGHI,AOML,UNKNOWN,North
2021-11-28T12:00:00Z,2021,12,0,332.5,332.5,61.698,-67.437,-999.0,-0.35,-999.0,no,yes,no,300234068345610,SVPGHI,AOML,UNKNOWN,North
2021-11-28T13:00:02Z,2021,13,0,332.5417,332.5417,61.697,-67.438,-999.0,-0.34,-999.0,no,yes,no,300234068345610,SVPGHI,AOML,UNKNOWN,North
2021-11-28T13:59:57Z,2021,14,0,332.5833,332.5833,61.688,-67.442,-999.0,-0.3,-999.0,no,yes,no,300234068345610,SVPGHI,AOML,UNKNOWN,North
2021-11-28T15:00:00Z,2021,15,0,332.625,332.625,61.68,-67.461,-999.0,-0.29,-999.0,no,yes,no,300234068345610,SVPGHI,AOML,UNKNOWN,North
2021-11-28T16:00:02Z,2021,16,0,332.6667,332.6667,61.676,-67.491,-999.0,-0.31,-999.0,no,yes,no,300234068345610,SVPGHI,AOML,UNKNOWN,North
2021-11-28T16:59:57Z,2021,17,0,332.7083,332.7083,61.678,-67.524,-999.0,-0.31,-999.0,no,yes,no,300234068345610,SVPGHI,AOML,UNKNOWN,North
2021-11-28T18:00:00Z,2021,18,0,332.75,332.75,61.687,-67.556,-999.0,-0.32,-999.0,no,yes,no,300234068345610,SVPGHI,AOML,UNKNOWN,North
2021-11-28T19:00:02Z,2021,19,0,332.7917,332.7917,61.702,-67.576,-999.0,-0.32,-999.0,no,yes,no,300234068345610,SVPGHI,AOML,UNKNOWN,North
2021-11-28T20:00:57Z,2021,20,1,332.834,332.834,61.716,-67.581,-999.0,-0.31,-999.0,no,yes,no,300234068345610,SVPGHI,AOML,UNKNOWN,North
2021-11-28T21:00:00Z,2021,21,0,332.875,332.875,61.728,-67.572,-999.0,-0.32,-999.0,no,yes,no,300234068345610,SVPGHI,AOML,UNKNOWN,North
2021-11-28T22:00:02Z,2021,22,0,332.9167,332.9167,61.736,-67.548,-999.0,-0.34,-999.0,no,yes,no,300234068345610,SVPGHI,AOML,UNKNOWN,North
2021-11-28T23:00:57Z,2021,23,1,332.959,332.959,61.738,-67.52,-999.0,-0.32,-999.0,no,yes,no,300234068345610,SVPGHI,AOML,UNKNOWN,North
2021-11-29T00:03:01Z,2021,0,3,333.0021,333.0021,61.742,-67.49,-999.0,-0.33,-999.0,no,yes,no,300234068345610,SVPGHI,AOML,UNKNOWN,North
2021-11-29T01:00:02Z,2021,1,0,333.0417,333.0417,61.739,-67.475,-999.0,-0.32,-999.0,no,yes,no,300234068345610,SVPGHI,AOML,UNKNOWN,North
2021-11-29T01:59:57Z,2021,2,0,333.0833,333.0833,61.734,-67.472,-999.0,-0.32,-999.0,no,yes,no,300234068345610,SVPGHI,AOML,UNKNOWN,North
2021-11-29T03:00:00Z,2021,3,0,333.125,333.125,61.728,-67.483,-999.0,-0.3,-999.0,no,yes,no,300234068345610,SVPGHI,AOML,UNKNOWN,North
2021-11-29T04:00:02Z,2021,4,0,333.1667,333.1667,61.727,-67.509,-999.0,-0.3,-999.0,no,yes,no,300234068345610,SVPGHI,AOML,UNKNOWN,North
2021-11-29T05:00:57Z,2021,5,1,333.209,333.209,61.731,-67.541,-999.0,-0.28,-999.0,no,yes,no,300234068345610,SVPGHI,AOML,UNKNOWN,North
2021-11-29T07:00:02Z,2021,7,0,333.2917,333.2917,61.751,-67.609,-999.0,-0.26,-999.0,no,yes,no,300234068345610,SVPGHI,AOML,UNKNOWN,North
2021-11-29T07:59:57Z,2021,8,0,333.3333,333.3333,61.764,-67.633,-999.0,-0.26,-999.0,no,yes,no,300234068345610,SVPGHI,AOML,UNKNOWN,North
2021-11-29T09:00:00Z,2021,9,0,333.375,333.375,61.773,-67.644,-999.0,-0.26,-999.0,no,yes,no,300234068345610,SVPGHI,AOML,UNKNOWN,North
2021-11-29T10:00:02Z,2021,10,0,333.4167,333.4167,61.784,-67.645,-999.0,-0.27,-999.0,no,yes,no,300234068345610,SVPGHI,AOML,UNKNOWN,North
2021-11-29T13:00:02Z,2021,13,0,333.5417,333.5417,61.791,-67.606,-999.0,-0.31,-999.0,no,yes,no,300234068345610,SVPGHI,AOML,UNKNOWN,North
2021-11-29T13:59:57Z,2021,14,0,333.5833,333.5833,61.791,-67.593,-999.0,-0.29,-999.0,no,yes,no,300234068345610,SVPGHI,AOML,UNKNOWN,North
2021-11-29T15:00:00Z,2021,15,0,333.625,333.625,61.792,-67.585,-999.0,-0.34,-999.0,no,yes,no,300234068345610,SVPGHI,AOML,UNKNOWN,North
2021-11-29T16:00:02Z,2021,16,0,333.6667,333.6667,61.795,-67.588,-999.0,-0.29,-999.0,no,yes,no,300234068345610,SVPGHI,AOML,UNKNOWN,North
2021-11-29T16:59:57Z,2021,17,0,333.7083,333.7083,61.799,-67.602,-999.0,-0.29,-999.0,no,yes,no,300234068345610,SVPGHI,AOML,UNKNOWN,North
2021-11-29T18:00:00Z,2021,18,0,333.75,333.75,61.807,-67.633,-999.0,-0.29,-999.0,no,yes,no,300234068345610,SVPGHI,AOML,UNKNOWN,North
2021-11-29T19:01:03Z,2021,19,1,333.7924,333.7924,61.819,-67.673,-999.0,-0.3,-999.0,no,yes,no,300234068345610,SVPGHI,AOML,UNKNOWN,North
2021-11-29T19:59:57Z,2021,20,0,333.8333,333.8333,61.833,-67.709,-999.0,-0.28,-999.0,no,yes,no,300234068345610,SVPGHI,AOML,UNKNOWN,North
2021-11-29T21:00:00Z,2021,21,0,333.875,333.875,61.848,-67.737,-999.0,-0.29,-999.0,no,yes,no,300234068345610,SVPGHI,AOML,UNKNOWN,North
2021-11-29T22:00:02Z,2021,22,0,333.9167,333.9167,61.863,-67.752,-999.0,-0.29,-999.0,no,yes,no,300234068345610,SVPGHI,AOML,UNKNOWN,North
2021-11-29T22:59:57Z,2021,23,0,333.9583,333.9583,61.875,-67.752,-999.0,-0.24,-999.0,no,yes,no,300234068345610,SVPGHI,AOML,UNKNOWN,North
2021-11-30T00:00:00Z,2021,0,0,334.0,334.0,61.882,-67.737,-999.0,-0.27,-999.0,no,yes,no,300234068345610,SVPGHI,AOML,UNKNOWN,North
2021-11-30T01:00:02Z,2021,1,0,334.0417,334.0417,61.885,-67.711,-999.0,-0.29,-999.0,no,yes,no,300234068345610,SVPGHI,AOML,UNKNOWN,North
2021-11-30T03:02:00Z,2021,3,2,334.1264,334.1264,61.884,-67.656,-999.0,-0.22,-999.0,no,yes,no,300234068345610,SVPGHI,AOML,UNKNOWN,North
2021-11-30T04:00:02Z,2021,4,0,334.1667,334.1667,61.884,-67.642,-999.0,-0.15,-999.0,no,yes,no,300234068345610,SVPGHI,AOML,UNKNOWN,North
2021-11-30T04:59:57Z,2021,5,0,334.2083,334.2083,61.885,-67.639,-999.0,-0.13,-999.0,no,yes,no,300234068345610,SVPGHI,AOML,UNKNOWN,North
2021-11-30T06:00:00Z,2021,6,0,334.25,334.25,61.889,-67.65,-999.0,-0.16,-999.0,no,yes,no,300234068345610,SVPGHI,AOML,UNKNOWN,North
2021-11-30T07:00:02Z,2021,7,0,334.2917,334.2917,61.892,-67.671,-999.0,-0.2,-999.0,no,yes,no,300234068345610,SVPGHI,AOML,UNKNOWN,North
2021-11-30T07:59:57Z,2021,8,0,334.3333,334.3333,61.898,-67.695,-999.0,-0.19,-999.0,no,yes,no,300234068345610,SVPGHI,AOML,UNKNOWN,North
2021-11-30T09:00:00Z,2021,9,0,334.375,334.375,61.905,-67.721,-999.0,-0.15,-999.0,no,yes,no,300234068345610,SVPGHI,AOML,UNKNOWN,North
2021-11-30T10:00:02Z,2021,10,0,334.4167,334.4167,61.915,-67.742,-999.0,-0.15,-999.0,no,yes,no,300234068345610,SVPGHI,AOML,UNKNOWN,North
2021-11-30T10:59:57Z,2021,11,0,334.4583,334.4583,61.921,-67.75,-999.0,-0.16,-999.0,no,yes,no,300234068345610,SVPGHI,AOML,UNKNOWN,North
2021-11-30T12:00:00Z,2021,12,0,334.5,334.5,61.928,-67.749,-999.0,-0.18,-999.0,no,yes,no,300234068345610,SVPGHI,AOML,UNKNOWN,North
2021-11-30T13:00:02Z,2021,13,0,334.5417,334.5417,61.932,-67.734,-999.0,-0.18,-999.0,no,yes,no,300234068345610,SVPGHI,AOML,UNKNOWN,North
2021-11-30T14:00:57Z,2021,14,1,334.584,334.584,61.935,-67.711,-999.0,-0.28,-999.0,no,yes,no,300234068345610,SVPGHI,AOML,UNKNOWN,North
2021-11-30T15:00:00Z,2021,15,0,334.625,334.625,61.937,-67.683,-999.0,-0.27,-999.0,no,yes,no,300234068345610,SVPGHI,AOML,UNKNOWN,North
2021-11-30T16:00:02Z,2021,16,0,334.6667,334.6667,61.936,-67.649,-999.0,-0.28,-999.0,no,yes,no,300234068345610,SVPGHI,AOML,UNKNOWN,North
2021-11-30T16:59:57Z,2021,17,0,334.7083,334.7083,61.941,-67.644,-999.0,-0.26,-999.0,no,yes,no,300234068345610,SVPGHI,AOML,UNKNOWN,North
2021-11-30T18:00:00Z,2021,18,0,334.75,334.75,61.944,-67.639,-999.0,-0.23,-999.0,no,yes,no,300234068345610,SVPGHI,AOML,UNKNOWN,North
2021-11-30T19:00:02Z,2021,19,0,334.7917,334.7917,61.949,-67.65,-999.0,-0.21,-999.0,no,yes,no,300234068345610,SVPGHI,AOML,UNKNOWN,North
2021-11-30T19:59:57Z,2021,20,0,334.8333,334.8333,61.951,-67.67,-999.0,-0.21,-999.0,no,yes,no,300234068345610,SVPGHI,AOML,UNKNOWN,North
2021-11-30T21:00:00Z,2021,21,0,334.875,334.875,61.954,-67.691,-999.0,-0.17,-999.0,no,yes,no,300234068345610,SVPGHI,AOML,UNKNOWN,North
2021-11-30T22:00:02Z,2021,22,0,334.9167,334.9167,61.956,-67.711,-999.0,-0.25,-999.0,no,yes,no,300234068345610,SVPGHI,AOML,UNKNOWN,North
2021-11-30T22:59:57Z,2021,23,0,334.9583,334.9583,61.958,-67.724,-999.0,-0.31,-999.0,no,yes,no,300234068345610,SVPGHI,AOML,UNKNOWN,North
2021-12-01T00:00:00Z,2021,0,0,335.0,335.0,61.961,-67.73,-999.0,-0.34,-999.0,no,yes,no,300234068345610,SVPGHI,AOML,UNKNOWN,North
2021-12-01T01:03:04Z,2021,1,3,335.0438,335.0438,61.955,-67.717,-999.0,-0.31,-999.0,no,yes,no,300234068345610,SVPGHI,AOML,UNKNOWN,North
2021-12-01T01:59:57Z,2021,2,0,335.0833,335.0833,61.953,-67.698,-999.0,-0.33,-999.0,no,yes,no,300234068345610,SVPGHI,AOML,UNKNOWN,North
2021-12-01T03:00:00Z,2021,3,0,335.125,335.125,61.95,-67.673,-999.0,-0.31,-999.0,no,yes,no,300234068345610,SVPGHI,AOML,UNKNOWN,North
2021-12-01T04:00:02Z,2021,4,0,335.1667,335.1667,61.947,-67.648,-999.0,-0.32,-999.0,no,yes,no,300234068345610,SVPGHI,AOML,UNKNOWN,North
2021-12-01T04:59:57Z,2021,5,0,335.2083,335.2083,61.945,-67.631,-999.0,-0.28,-999.0,no,yes,no,300234068345610,SVPGHI,AOML,UNKNOWN,North
2021-12-01T06:00:00Z,2021,6,0,335.25,335.25,61.943,-67.628,-999.0,-0.25,-999.0,no,yes,no,300234068345610,SVPGHI,AOML,UNKNOWN,North
2021-12-01T07:00:02Z,2021,7,0,335.2917,335.2917,61.943,-67.638,-999.0,-0.2,-999.0,no,yes,no,300234068345610,SVPGHI,AOML,UNKNOWN,North
2021-12-01T07:59:57Z,2021,8,0,335.3333,335.3333,61.944,-67.658,-999.0,-0.23,-999.0,no,yes,no,300234068345610,SVPGHI,AOML,UNKNOWN,North
2021-12-01T09:00:00Z,2021,9,0,335.375,335.375,61.944,-67.685,-999.0,-0.21,-999.0,no,yes,no,300234068345610,SVPGHI,AOML,UNKNOWN,North
2021-12-01T10:00:02Z,2021,10,0,335.4167,335.4167,61.942,-67.71,-999.0,-0.24,-999.0,no,yes,no,300234068345610,SVPGHI,AOML,UNKNOWN,North
2021-12-01T12:00:00Z,2021,12,0,335.5,335.5,61.938,-67.739,-999.0,-0.24,-999.0,no,yes,no,300234068345610,SVPGHI,AOML,UNKNOWN,North
2021-12-01T13:00:02Z,2021,13,0,335.5417,335.5417,61.933,-67.737,-999.0,-0.24,-999.0,no,yes,no,300234068345610,SVPGHI,AOML,UNKNOWN,North
2021-12-01T13:59:57Z,2021,14,0,335.5833,335.5833,61.925,-67.725,-999.0,-0.25,-999.0,no,yes,no,300234068345610,SVPGHI,AOML,UNKNOWN,North